Location: Dillon
(41.1766°N, 107.0923°W)
Time: 22:06:23
(UTC+00:00)

ISS - Visible Passes

Search period start: 22 January 2022 00:00
Search period end: 01 February 2022 00:00
Orbit: 413 x 422 km, 51.6° (Epoch: 22 January)

Date Brightness Start Highest point End Pass type
(mag) Time Alt. Az. Time Alt. Az. Time Alt. Az.
22 Jan -2.2 01:46:53 10° W 01:49:45 26° NNW 01:50:36 23° N visible
23 Jan -2.6 00:58:31 10° W 01:01:39 36° NNW 01:04:38 11° NE visible
23 Jan -0.7 02:37:08 10° NW 02:37:34 12° NW 02:37:34 12° NW visible
24 Jan -1.6 01:48:36 10° WNW 01:50:53 17° NNW 01:51:34 16° N visible
25 Jan -1.8 01:00:04 10° WNW 01:02:39 20° NNW 01:05:16 10° NNE visible
26 Jan -1.4 01:50:15 10° NW 01:52:05 14° N 01:52:23 14° N visible
27 Jan -1.5 01:01:46 10° NW 01:03:46 15° N 01:05:47 10° NNE visible
28 Jan -1.5 01:51:19 10° NNW 01:53:10 14° N 01:53:10 14° N visible
29 Jan -1.5 01:03:08 10° NNW 01:04:55 14° N 01:06:43 10° NE visible
29 Jan -0.8 02:39:47 10° NW 02:40:02 11° NNW 02:40:02 11° NNW visible
30 Jan -1.9 01:51:50 10° NNW 01:54:01 19° N 01:54:01 19° N visible
31 Jan -1.7 01:03:50 10° NNW 01:06:00 16° NNE 01:08:03 10° NE visible
31 Jan -1.1 02:40:07 10° NW 02:40:59 16° NW 02:40:59 16° NW visible
